| time (UTC) | temp F | wind direction | speed knots | gust knots | rain 1hr in | rain 24hr in | rain mn in | humidity % | barometer mb |
| 20260503212021 | 61 | 252 | 5.2 | 14.8 | 0.00 | 0.00 | 0.00 | 63 | 1013.1 |
| 20260503211538 | 60 | 277 | 3.5 | 14.8 | 0.00 | 0.00 | 0.00 | 65 | 1013.2 |
| 20260503211021 | 61 | 223 | 6.1 | 14.8 | 0.00 | 0.00 | 0.00 | 65 | 1013.2 |
| 20260503210519 | 59 | 236 | 7.8 | 13.9 | 0.00 | 0.00 | 0.00 | 65 | 1013.2 |
| 20260503210038 | 59 | 220 | 6.1 | 12.2 | 0.00 | 0.00 | 0.00 | 65 | 1013.3 |
| 20260503205521 | 60 | 248 | 6.1 | 12.2 | 0.00 | 0.00 | 0.00 | 67 | 1013.4 |
| 20260503205022 | 59 | 240 | 5.2 | 12.2 | 0.00 | 0.00 | 0.00 | 65 | 1013.3 |
| 20260503204534 | 59 | 227 | 4.3 | 13.9 | 0.00 | 0.00 | 0.00 | 66 | 1013.3 |
| 20260503204020 | 60 | 228 | 5.2 | 13.9 | 0.00 | 0.00 | 0.00 | 66 | 1013.4 |
| 20260503203521 | 60 | 222 | 6.1 | 12.2 | 0.00 | 0.00 | 0.00 | 65 | 1013.5 |
| 20260503203041 | 59 | 220 | 5.2 | 16.5 | 0.00 | 0.00 | 0.00 | 64 | 1013.5 |
| 20260503202521 | 59 | 271 | 6.1 | 16.5 | 0.00 | 0.00 | 0.00 | 65 | 1013.5 |
| 20260503202022 | 60 | 267 | 7.8 | 15.6 | 0.00 | 0.00 | 0.00 | 63 | 1013.5 |
| 20260503201541 | 60 | 199 | 4.3 | 11.3 | 0.00 | 0.00 | 0.00 | 64 | 1013.5 |
| 20260503201021 | 59 | 184 | 6.1 | 13.9 | 0.00 | 0.00 | 0.00 | 65 | 1013.4 |
| 20260503200521 | 60 | 236 | 6.1 | 13.9 | 0.00 | 0.00 | 0.00 | 64 | 1013.3 |
| 20260503200046 | 60 | 254 | 5.2 | 11.3 | 0.00 | 0.00 | 0.00 | 64 | 1013.4 |
| 20260503195519 | 62 | 257 | 5.2 | 11.3 | 0.00 | 0.00 | 0.00 | 62 | 1013.5 |
| 20260503195021 | 62 | 221 | 6.1 | 12.2 | 0.00 | 0.00 | 0.00 | 61 | 1013.6 |
| 20260503194544 | 63 | 266 | 7.0 | 13.0 | 0.00 | 0.00 | 0.00 | 60 | 1013.7 |
| 20260503194023 | 63 | 269 | 6.1 | 13.0 | 0.00 | 0.00 | 0.00 | 59 | 1013.7 |
| 20260503193524 | 62 | 250 | 5.2 | 13.0 | 0.00 | 0.00 | 0.00 | 60 | 1013.6 |
| 20260503193036 | 62 | 277 | 5.2 | 13.0 | 0.00 | 0.00 | 0.00 | 61 | 1013.6 |
| 20260503192530 | 62 | 294 | 4.3 | 11.3 | 0.00 | 0.00 | 0.00 | 66 | 1013.6 |
| 20260503192020 | 61 | 250 | 6.1 | 11.3 | 0.00 | 0.00 | 0.00 | 64 | 1013.7 |
| 20260503191547 | 60 | 222 | 4.3 | 11.3 | 0.00 | 0.00 | 0.00 | 66 | 1013.7 |
| 20260503191022 | 60 | 266 | 4.3 | 10.4 | 0.00 | 0.00 | 0.00 | 65 | 1013.7 |
| 20260503190520 | 61 | 209 | 4.3 | 9.6 | 0.00 | 0.00 | 0.00 | 67 | 1013.7 |
| 20260503190046 | 59 | 273 | 5.2 | 10.4 | 0.00 | 0.00 | 0.00 | 67 | 1013.8 |
| 20260503185521 | 59 | 245 | 4.3 | 10.4 | 0.00 | 0.00 | 0.00 | 68 | 1013.9 |
| 20260503185019 | 59 | 232 | 7.0 | 10.4 | 0.00 | 0.00 | 0.00 | 65 | 1013.9 |
| 20260503184554 | 59 | 269 | 4.3 | 9.6 | 0.00 | 0.00 | 0.00 | 67 | 1014.0 |
| 20260503184021 | 58 | 274 | 5.2 | 11.3 | 0.00 | 0.00 | 0.00 | 69 | 1014.0 |
| 20260503183518 | 58 | 245 | 6.1 | 11.3 | 0.00 | 0.00 | 0.00 | 70 | 1014.0 |
| 20260503183055 | 57 | 257 | 5.2 | 9.6 | 0.00 | 0.00 | 0.00 | 73 | 1014.0 |
| 20260503182521 | 57 | 279 | 2.6 | 8.7 | 0.00 | 0.00 | 0.00 | 73 | 1014.1 |
| 20260503182021 | 56 | 267 | 2.6 | 9.6 | 0.00 | 0.00 | 0.00 | 76 | 1014.1 |
| 20260503181541 | 56 | 250 | 3.5 | 9.6 | 0.00 | 0.00 | 0.00 | 76 | 1014.1 |
| 20260503181020 | 55 | 217 | 4.3 | 9.6 | 0.00 | 0.00 | 0.00 | 76 | 1014.2 |
| 20260503180520 | 55 | 234 | 4.3 | 9.6 | 0.00 | 0.00 | 0.00 | 79 | 1014.1 |
| 20260503180044 | 55 | 213 | 6.1 | 9.6 | 0.00 | 0.00 | 0.00 | 78 | 1014.1 |
| 20260503175520 | 55 | 229 | 3.5 | 7.8 | 0.00 | 0.00 | 0.00 | 77 | 1014.1 |
| 20260503175025 | 55 | 239 | 2.6 | 8.7 | 0.00 | 0.00 | 0.00 | 77 | 1014.1 |
| 20260503174539 | 55 | 277 | 2.6 | 8.7 | 0.00 | 0.00 | 0.00 | 76 | 1014.0 |
| 20260503174020 | 56 | 247 | 3.5 | 10.4 | 0.00 | 0.00 | 0.00 | 77 | 1014.0 |
| 20260503173524 | 56 | 261 | 6.1 | 10.4 | 0.00 | 0.00 | 0.00 | 77 | 1014.0 |
| 20260503173038 | 56 | 273 | 3.5 | 10.4 | 0.00 | 0.00 | 0.00 | 76 | 1014.0 |
| 20260503172519 | 56 | 175 | 3.5 | 10.4 | 0.00 | 0.00 | 0.00 | 77 | 1014.0 |
| 20260503172020 | 55 | 230 | 6.1 | 10.4 | 0.00 | 0.00 | 0.00 | 77 | 1014.0 |
| 20260503171542 | 55 | 247 | 4.3 | 9.6 | 0.00 | 0.00 | 0.00 | 79 | 1013.9 |
| 20260503171020 | 54 | 289 | 4.3 | 11.3 | 0.00 | 0.00 | 0.00 | 80 | 1013.9 |
| 20260503170520 | 55 | 225 | 4.3 | 11.3 | 0.00 | 0.00 | 0.00 | 80 | 1013.8 |
| 20260503150520 | 52 | 0 | 0.0 | 0.9 | 0.00 | 0.00 | 0.00 | 87 | 1013.1 |
| 20260503131020 | 48 | 0 | 0.0 | 2.6 | 0.00 | 0.00 | 0.00 | 91 | 1012.2 |
| 20260503130521 | 48 | 0 | 0.0 | 2.6 | 0.00 | 0.00 | 0.00 | 91 | 1012.1 |
| 20260503110522 | 49 | 0 | 0.0 | 0.9 | 0.00 | 0.00 | 0.00 | 88 | 1011.8 |
| 20260503081554 | 49 | 257 | 0.9 | 2.6 | 0.00 | 0.00 | 0.00 | 90 | 1012.3 |
| 20260503081021 | 49 | 257 | 0.0 | 2.6 | 0.00 | 0.00 | 0.00 | 91 | 1012.4 |
| 20260503080520 | 49 | 257 | 0.0 | 2.6 | 0.00 | 0.00 | 0.00 | 91 | 1012.4 |
| 20260503072519 | 50 | 0 | 0.0 | 2.6 | 0.00 | 0.00 | 0.00 | 90 | 1012.2 |
| 20260503072020 | 50 | 0 | 0.0 | 2.6 | 0.00 | 0.00 | 0.00 | 90 | 1012.1 |
| 20260503071540 | 50 | 0 | 0.0 | 2.6 | 0.00 | 0.00 | 0.00 | 90 | 1012.1 |
| 20260503071019 | 49 | 304 | 0.9 | 2.6 | 0.00 | 0.00 | 0.00 | 89 | 1012.1 |
| 20260503070521 | 50 | 272 | 0.0 | 1.7 | 0.00 | 0.00 | 0.00 | 89 | 1012.1 |
| 20260503055019 | 53 | 281 | 1.7 | 5.2 | 0.00 | 0.00 | 0.00 | 87 | 1011.8 |
| 20260503054547 | 53 | 281 | 1.7 | 5.2 | 0.00 | 0.00 | 0.00 | 87 | 1011.8 |
| 20260503054022 | 53 | 218 | 1.7 | 5.2 | 0.00 | 0.00 | 0.00 | 87 | 1011.8 |
| 20260503053520 | 53 | 238 | 1.7 | 6.1 | 0.00 | 0.00 | 0.00 | 87 | 1011.7 |
| 20260503053039 | 53 | 220 | 2.6 | 6.1 | 0.00 | 0.00 | 0.00 | 87 | 1011.7 |
| 20260503052520 | 53 | 222 | 2.6 | 6.1 | 0.00 | 0.00 | 0.00 | 87 | 1011.7 |
| 20260503052019 | 53 | 221 | 1.7 | 9.6 | 0.00 | 0.00 | 0.00 | 87 | 1011.7 |
| 20260503051538 | 53 | 260 | 2.6 | 9.6 | 0.00 | 0.00 | 0.00 | 87 | 1011.6 |
| 20260503051019 | 52 | 254 | 4.3 | 9.6 | 0.00 | 0.00 | 0.00 | 88 | 1011.5 |
| 20260503050522 | 52 | 257 | 2.6 | 8.7 | 0.00 | 0.00 | 0.00 | 88 | 1011.4 |
| 20260503050038 | 52 | 242 | 5.2 | 10.4 | 0.00 | 0.00 | 0.00 | 88 | 1011.5 |
| 20260503045522 | 52 | 245 | 2.6 | 10.4 | 0.00 | 0.00 | 0.00 | 88 | 1011.5 |
| 20260503045022 | 52 | 271 | 4.3 | 10.4 | 0.00 | 0.00 | 0.00 | 88 | 1011.4 |
| 20260503044549 | 52 | 281 | 4.3 | 9.6 | 0.00 | 0.00 | 0.00 | 88 | 1011.3 |
| 20260503044021 | 52 | 240 | 2.6 | 9.6 | 0.00 | 0.00 | 0.00 | 88 | 1011.2 |
| 20260503043521 | 52 | 270 | 5.2 | 8.7 | 0.00 | 0.00 | 0.00 | 88 | 1011.2 |
| 20260503043043 | 52 | 263 | 3.5 | 7.8 | 0.00 | 0.00 | 0.00 | 88 | 1011.0 |
| 20260503042521 | 52 | 261 | 3.5 | 8.7 | 0.00 | 0.00 | 0.00 | 88 | 1011.0 |
| 20260503042021 | 52 | 254 | 3.5 | 8.7 | 0.00 | 0.00 | 0.00 | 88 | 1011.1 |
| 20260503041545 | 52 | 257 | 3.5 | 9.6 | 0.00 | 0.00 | 0.00 | 88 | 1011.0 |
| 20260503041021 | 52 | 228 | 4.3 | 9.6 | 0.00 | 0.00 | 0.00 | 88 | 1011.0 |
| 20260503040521 | 52 | 196 | 5.2 | 12.2 | 0.00 | 0.00 | 0.00 | 88 | 1011.0 |
| 20260503040041 | 52 | 221 | 5.2 | 12.2 | 0.00 | 0.00 | 0.00 | 88 | 1011.0 |
| 20260503035521 | 52 | 223 | 4.3 | 16.5 | 0.00 | 0.00 | 0.00 | 88 | 1011.0 |
| 20260503035022 | 52 | 214 | 6.1 | 16.5 | 0.00 | 0.00 | 0.00 | 87 | 1010.9 |
| 20260503034542 | 52 | 218 | 4.3 | 17.4 | 0.00 | 0.00 | 0.00 | 87 | 1010.9 |
| 20260503034021 | 52 | 238 | 7.0 | 17.4 | 0.00 | 0.00 | 0.00 | 87 | 1010.9 |
| 20260503033520 | 52 | 217 | 6.1 | 17.4 | 0.00 | 0.00 | 0.00 | 87 | 1010.8 |
| 20260503033058 | 52 | 274 | 6.1 | 13.0 | 0.00 | 0.00 | 0.00 | 86 | 1010.7 |
| 20260503032518 | 52 | 261 | 5.2 | 12.2 | 0.00 | 0.00 | 0.00 | 86 | 1010.7 |
| 20260503032025 | 53 | 249 | 4.3 | 12.2 | 0.00 | 0.00 | 0.00 | 86 | 1010.9 |
| 20260503031552 | 53 | 250 | 6.1 | 12.2 | 0.00 | 0.00 | 0.00 | 85 | 1010.9 |
| 20260503031025 | 53 | 229 | 4.3 | 13.0 | 0.00 | 0.00 | 0.00 | 85 | 1010.8 |
| 20260503030521 | 53 | 227 | 4.3 | 13.0 | 0.00 | 0.00 | 0.00 | 85 | 1010.8 |
| 20260503030040 | 53 | 222 | 6.1 | 13.0 | 0.00 | 0.00 | 0.00 | 85 | 1010.7 |
| 20260503025519 | 53 | 226 | 6.1 | 13.0 | 0.00 | 0.00 | 0.00 | 85 | 1010.7 |
| 20260503025021 | 53 | 239 | 5.2 | 9.6 | 0.00 | 0.00 | 0.00 | 84 | 1010.7 |
| 20260503024536 | 54 | 232 | 4.3 | 8.7 | 0.00 | 0.00 | 0.00 | 84 | 1010.7 |
| 20260503024019 | 54 | 265 | 3.5 | 9.6 | 0.00 | 0.00 | 0.00 | 83 | 1010.6 |
| 20260503023521 | 54 | 266 | 4.3 | 9.6 | 0.00 | 0.00 | 0.00 | 83 | 1010.7 |
| 20260503023045 | 54 | 258 | 4.3 | 9.6 | 0.00 | 0.00 | 0.00 | 82 | 1010.7 |
| 20260503022520 | 55 | 215 | 5.2 | 10.4 | 0.00 | 0.00 | 0.00 | 82 | 1010.7 |
| 20260503022020 | 55 | 212 | 4.3 | 10.4 | 0.00 | 0.00 | 0.00 | 81 | 1010.7 |
| 20260503021540 | 55 | 213 | 4.3 | 9.6 | 0.00 | 0.00 | 0.00 | 81 | 1010.7 |
| 20260503021021 | 56 | 275 | 5.2 | 10.4 | 0.00 | 0.00 | 0.00 | 80 | 1010.7 |
| 20260503020522 | 56 | 240 | 4.3 | 10.4 | 0.00 | 0.00 | 0.00 | 79 | 1010.6 |
| 20260503020048 | 57 | 269 | 5.2 | 10.4 | 0.00 | 0.00 | 0.00 | 79 | 1010.6 |
| 20260503015519 | 57 | 235 | 4.3 | 10.4 | 0.00 | 0.00 | 0.00 | 78 | 1010.6 |
| 20260503015019 | 58 | 244 | 5.2 | 10.4 | 0.00 | 0.00 | 0.00 | 77 | 1010.6 |
| 20260503014542 | 58 | 224 | 5.2 | 9.6 | 0.00 | 0.00 | 0.00 | 77 | 1010.6 |
| 20260503014019 | 58 | 245 | 3.5 | 11.3 | 0.00 | 0.00 | 0.00 | 76 | 1010.6 |
| 20260503013519 | 58 | 228 | 4.3 | 11.3 | 0.00 | 0.00 | 0.00 | 76 | 1010.5 |
| 20260503013039 | 59 | 271 | 5.2 | 12.2 | 0.00 | 0.00 | 0.00 | 76 | 1010.5 |
| 20260503012521 | 59 | 274 | 6.1 | 12.2 | 0.00 | 0.00 | 0.00 | 76 | 1010.4 |
| 20260503012020 | 59 | 236 | 6.1 | 13.0 | 0.00 | 0.00 | 0.00 | 75 | 1010.4 |
| 20260503011546 | 59 | 231 | 5.2 | 13.0 | 0.00 | 0.00 | 0.00 | 75 | 1010.3 |
| 20260503011021 | 60 | 289 | 4.3 | 14.8 | 0.00 | 0.00 | 0.00 | 75 | 1010.3 |
| 20260503010519 | 59 | 213 | 6.1 | 15.6 | 0.00 | 0.00 | 0.00 | 75 | 1010.3 |
| 20260503010041 | 60 | 243 | 8.7 | 15.6 | 0.00 | 0.00 | 0.00 | 75 | 1010.3 |
| 20260503005520 | 60 | 213 | 8.7 | 16.5 | 0.00 | 0.00 | 0.00 | 75 | 1010.3 |
| 20260503005020 | 60 | 213 | 9.6 | 17.4 | 0.00 | 0.00 | 0.00 | 75 | 1010.3 |
| 20260503004543 | 60 | 221 | 10.4 | 17.4 | 0.00 | 0.00 | 0.00 | 74 | 1010.2 |
| 20260503004023 | 61 | 239 | 7.8 | 17.4 | 0.00 | 0.00 | 0.00 | 73 | 1010.1 |
| 20260503003518 | 61 | 210 | 9.6 | 19.1 | 0.00 | 0.00 | 0.00 | 74 | 1010.1 |
| 20260503003043 | 60 | 225 | 11.3 | 19.1 | 0.00 | 0.00 | 0.00 | 73 | 1010.1 |
| 20260503002521 | 61 | 209 | 10.4 | 20.9 | 0.00 | 0.00 | 0.00 | 73 | 1010.1 |
| 20260503002025 | 61 | 234 | 12.2 | 20.9 | 0.00 | 0.00 | 0.00 | 73 | 1010.2 |
| 20260503001537 | 62 | 234 | 10.4 | 19.1 | 0.00 | 0.00 | 0.00 | 71 | 1010.2 |
| 20260503001019 | 62 | 227 | 10.4 | 17.4 | 0.00 | 0.00 | 0.00 | 71 | 1010.2 |
| 20260503000522 | 62 | 244 | 9.6 | 18.2 | 0.00 | 0.00 | 0.00 | 70 | 1010.2 |
| 20260503000035 | 62 | 219 | 10.4 | 18.2 | 0.00 | 0.00 | 0.00 | 71 | 1010.2 |
| 20260502235519 | 62 | 221 | 8.7 | 18.2 | 0.00 | 0.00 | 0.00 | 71 | 1010.2 |
| 20260502235021 | 62 | 225 | 11.3 | 17.4 | 0.00 | 0.00 | 0.00 | 70 | 1010.2 |
| 20260502234541 | 63 | 213 | 10.4 | 18.2 | 0.00 | 0.00 | 0.00 | 69 | 1010.2 |
| 20260502234019 | 63 | 223 | 11.3 | 18.2 | 0.00 | 0.00 | 0.00 | 68 | 1010.2 |
| 20260502233521 | 64 | 229 | 7.0 | 17.4 | 0.00 | 0.00 | 0.00 | 68 | 1010.2 |
| 20260502233059 | 64 | 250 | 8.7 | 18.2 | 0.00 | 0.00 | 0.00 | 68 | 1010.3 |
| 20260502232521 | 63 | 223 | 10.4 | 18.2 | 0.00 | 0.00 | 0.00 | 69 | 1010.3 |
| 20260502232021 | 64 | 259 | 8.7 | 13.9 | 0.00 | 0.00 | 0.00 | 69 | 1010.4 |
| 20260502231602 | 65 | 281 | 7.0 | 15.6 | 0.00 | 0.00 | 0.00 | 67 | 1010.5 |
| 20260502231022 | 64 | 291 | 9.6 | 15.6 | 0.00 | 0.00 | 0.00 | 69 | 1010.6 |
| 20260502230520 | 64 | 245 | 8.7 | 15.6 | 0.00 | 0.00 | 0.00 | 68 | 1010.6 |
| 20260502230036 | 64 | 277 | 7.8 | 15.6 | 0.00 | 0.00 | 0.00 | 68 | 1010.7 |
| 20260502225521 | 65 | 265 | 7.0 | 16.5 | 0.00 | 0.00 | 0.00 | 68 | 1010.7 |
| 20260502225018 | 65 | 228 | 7.0 | 16.5 | 0.00 | 0.00 | 0.00 | 68 | 1010.8 |
| 20260502224545 | 65 | 236 | 7.0 | 15.6 | 0.00 | 0.00 | 0.00 | 67 | 1011.0 |
| 20260502224021 | 66 | 225 | 7.0 | 18.2 | 0.00 | 0.00 | 0.00 | 66 | 1011.1 |
| 20260502223521 | 65 | 218 | 7.8 | 18.2 | 0.00 | 0.00 | 0.00 | 66 | 1011.1 |
| 20260502223048 | 65 | 277 | 9.6 | 18.2 | 0.00 | 0.00 | 0.00 | 66 | 1011.2 |
| 20260502222521 | 66 | 275 | 7.8 | 17.4 | 0.00 | 0.00 | 0.00 | 67 | 1011.2 |
| 20260502222022 | 65 | 228 | 10.4 | 17.4 | 0.00 | 0.00 | 0.00 | 67 | 1011.3 |
| 20260502221540 | 65 | 311 | 10.4 | 16.5 | 0.00 | 0.00 | 0.00 | 67 | 1011.4 |
| 20260502221021 | 65 | 267 | 9.6 | 15.6 | 0.00 | 0.00 | 0.00 | 67 | 1011.5 |
| 20260502220522 | 65 | 212 | 9.6 | 15.6 | 0.00 | 0.00 | 0.00 | 68 | 1011.7 |
| 20260502220043 | 66 | 259 | 7.0 | 14.8 | 0.00 | 0.00 | 0.00 | 69 | 1011.7 |
| 20260502215521 | 65 | 242 | 7.0 | 15.6 | 0.00 | 0.00 | 0.00 | 68 | 1011.8 |
| 20260502215022 | 65 | 266 | 8.7 | 15.6 | 0.00 | 0.00 | 0.00 | 70 | 1011.9 |
| 20260502214542 | 65 | 265 | 7.8 | 15.6 | 0.00 | 0.00 | 0.00 | 70 | 1012.0 |
| 20260502214021 | 65 | 277 | 8.7 | 15.6 | 0.00 | 0.00 | 0.00 | 69 | 1012.0 |
| 20260502213521 | 65 | 230 | 7.0 | 13.9 | 0.00 | 0.00 | 0.00 | 68 | 1012.2 |
| 20260502213050 | 66 | 253 | 7.0 | 13.9 | 0.00 | 0.00 | 0.00 | 68 | 1012.1 |
| 20260502212521 | 66 | 279 | 7.0 | 13.9 | 0.00 | 0.00 | 0.00 | 69 | 1012.2 |